Status Flugplatz

Der Flugplatz ist offen
PPR Regelung ! PJE !!!

123.15 MHz
RWY 05/23

flüger beizli - Öffnungszeiten
Freitag ab 16:00
Samstag +Sonntag ab 11:00
Bei schönem Wetter öffnen wir früher! Tel.: 079 234 07 74

Warteliste für Hangarplatz LSZP

Stand November 2016

Vorbehalt 1 Platz für FGS
Immer der letzte, der einen Platz erhalten hat, muss diesen räumen falls die FGS ihren Platz beansprucht.

1. Roland Modler  -  Auster 5 / HB-EOP
2. Hansueli Scheurer  -  Piper Archer
3. Tobias Reichert  -  Hochdecker ähnlich Kitfox
4. Christoph Schnider  -  Flugzeug offen
5. Hennes Hochstrasser  -  Morane Ralley
6. Louis Stieger  -  ICP Savannah S
7. Martin Feist  -  Rockwell  Commander 112 TC
8. Erik Gijsbers  -  Sportcruiser PS28
9. Stephen Tucker  -  Rans S-6S
10.Heinz Loosli  -  Diamond DA 40NG
11.Simon Vogelsanger  -  Colibri MB2
12.Robert Kopp  -  Piper PA28-236
13.Schwarzentruber Willy  -  Piper PA28

Anfragen sind schriftlich an den Vorstand der Flugplatzgenossenschaft zu richten.

Email Anfragen können nicht berücksichtigt werden.

Wetter Kappelen

 


 

[source: ADDS]
METAR
LSZG 232320Z AUTO 06002KT CAVOK 03/02 Q1017 =
TAF
TAF LSZG 231425Z 2315/2324 25005KT CAVOK PROB40 2321/2324 9999 SCT060 PROB30 2322/2324 1500 BKN008 =
SR / SS: 06:49 / 15:48 UTC ( 2017-11-24)

 


 

Flugplatz Biel-Kappelen LSZP - 123.15MHz - 032 384 46 84

Email: Diese E-Mail-Adresse ist vor Spambots geschützt! Zur Anzeige muss JavaScript eingeschaltet sein!
www.lszp.ch
2017 © by mb

Zum Anfang